Weather History for LIRN - September, 2014

Change the Weather History Date:

Friday, September 12, 2014

  Actual Average Record
Temperature  
Mean Temperature 74 °F -  
Max Temperature 81 °F 76 °F 86 °F (2006)
Min Temperature 66 °F 57 °F 53 °F (2001)
Cooling Degree Days 8    
Growing Degree Days 24 (Base 50)    
Moisture  
Dew Point 68 °F    
Average Humidity 81    
Maximum Humidity 94    
Minimum Humidity 50    
Precipitation  
Precipitation 0.20 in 0.13 in - ()
Sea Level Pressure  
Sea Level Pressure 29.86 in    
Wind  
Wind Speed 5 mph ()    
Max Wind Speed 12 mph    
Max Gust Speed -    
Visibility 5.9 miles    
Events Rain , Thunderstorm    
Averages and records for this station are not official NWS values.
T = Trace of Precipitation, MM = Missing Value Source: Averaged Metar Reports

Daily Weather History Graph

Daily Weather History Graph

Search for Another Location

Airport or City:

Trip Planner

Search our weather history database for the weather conditions in past years. The results will help you decide how hot, cold, wet, or windy it might be!

Date:

Astronomy

Sep. 12, 2014 Rise Set
Actual Time 6:40 AM CEST 7:17 PM CEST
Civil Twilight 6:12 AM CEST 7:45 PM CEST
Nautical Twilight 5:39 AM CEST 8:17 PM CEST
Astronomical Twilight 5:06 AM CEST 8:51 PM CEST
Moon 9:23 PM CEST (9/12) 10:26 AM CEST (9/12)
Length of Visible Light 13h 32m
Length of Day
12h 37m
Waning Gibbous, 85% of the Moon is Illuminated
Sep 12
Waning Gibbous
Sep 16
Last Quarter
Sep 24
New
Oct 1
First Quarter
Oct 8
Full

Hourly Weather History & Observations

Time (CEST) Temp. Heat Index Dew Point Humidity Pressure Visibility Wind Dir Wind Speed Gust Speed Precip Events Conditions
12:20 AM 66.2 °F - 64.4 °F 94% 29.86 in 1.9 mi Variable 2.3 mph - N/A Rain , Thunderstorm Thunderstorms and Rain
12:50 AM 66.2 °F - 64.4 °F 94% 29.86 in 2.5 mi South 3.5 mph - N/A Rain , Thunderstorm Thunderstorms and Rain
1:20 AM 66.2 °F - 64.4 °F 94% 29.86 in 3.7 mi SSW 5.8 mph - N/A   Mostly Cloudy
1:50 AM 66.2 °F - 64.4 °F 94% 29.86 in 5.0 mi Calm Calm - N/A   Mostly Cloudy
2:20 AM 66.2 °F - 64.4 °F 94% 29.86 in 5.0 mi SE 3.5 mph - N/A   Mostly Cloudy
2:50 AM 68.0 °F - 66.2 °F 94% 29.86 in 3.1 mi NNE 4.6 mph - N/A Rain Light Rain
3:20 AM 68.0 °F - 64.4 °F 88% 29.83 in 3.1 mi ESE 3.5 mph - N/A Rain Light Rain
3:50 AM 66.2 °F - 64.4 °F 94% 29.83 in 3.1 mi Variable 2.3 mph - N/A Rain Light Rain
4:20 AM 66.2 °F - 64.4 °F 94% 29.83 in 6.2 mi Calm Calm - N/A   Mostly Cloudy
4:50 AM 66.2 °F - 64.4 °F 94% 29.83 in 6.2 mi NNW 2.3 mph - N/A   Scattered Clouds
5:20 AM 66.2 °F - 64.4 °F 94% 29.83 in 6.2 mi Variable 2.3 mph - N/A   Scattered Clouds
5:50 AM 66.2 °F - 64.4 °F 94% 29.83 in 6.2 mi Variable 1.2 mph - N/A   Scattered Clouds
6:20 AM 68.0 °F - 66.2 °F 94% 29.83 in 6.2 mi NNW 3.5 mph - N/A   Mostly Cloudy
6:50 AM 68.0 °F - 66.2 °F 94% 29.83 in 6.2 mi Variable 2.3 mph - N/A   Mostly Cloudy
7:20 AM 68.0 °F - 66.2 °F 94% 29.83 in 6.2 mi North 3.5 mph - N/A   Mostly Cloudy
7:50 AM 68.0 °F - 66.2 °F 94% 29.83 in 6.2 mi North 3.5 mph - N/A   Scattered Clouds
8:20 AM 69.8 °F - 66.2 °F 88% 29.83 in 6.2 mi NNE 5.8 mph - N/A   Mostly Cloudy
8:50 AM 68.0 °F - 66.2 °F 94% 29.83 in 6.2 mi NE 5.8 mph - N/A Rain Light Rain
9:20 AM 69.8 °F - 66.2 °F 88% 29.83 in 6.2 mi East 4.6 mph - N/A   Scattered Clouds
9:50 AM 73.4 °F - 68.0 °F 83% 29.83 in 6.2 mi ENE 3.5 mph - N/A   Partly Cloudy
10:20 AM 75.2 °F - 68.0 °F 78% 29.83 in 6.2 mi Variable 2.3 mph - N/A   Partly Cloudy
10:50 AM 77.0 °F - 66.2 °F 69% 29.86 in 6.2 mi Variable 1.2 mph - N/A   Scattered Clouds
11:20 AM 78.8 °F - 68.0 °F 69% 29.86 in 6.2 mi South 3.5 mph - N/A   Scattered Clouds
11:50 AM 78.8 °F - 68.0 °F 69% 29.86 in 6.2 mi South 6.9 mph - N/A   Scattered Clouds
12:20 PM 78.8 °F - 69.8 °F 74% 29.86 in 6.2 mi SSW 10.4 mph - N/A   Scattered Clouds
12:50 PM 80.6 °F 83.9 °F 69.8 °F 70% 29.86 in 6.2 mi SSW 9.2 mph - N/A   Scattered Clouds
1:20 PM 80.6 °F 83.9 °F 69.8 °F 70% 29.86 in 6.2 mi SSW 10.4 mph - N/A   Scattered Clouds
1:50 PM 80.6 °F 82.7 °F 66.2 °F 61% 29.86 in 6.2 mi SSW 9.2 mph - N/A   Partly Cloudy
2:00 PM 81 °F - 65 °F 50% 29.86 in 14 mi SSW 10.4 mph - -   Scattered Clouds
2:20 PM 82.4 °F 84.6 °F 66.2 °F 58% 29.86 in 6.2 mi SSW 10.4 mph - N/A   Scattered Clouds
2:50 PM 80.6 °F 83.2 °F 68.0 °F 65% 29.86 in 6.2 mi SSW 11.5 mph - N/A   Scattered Clouds
3:20 PM 80.6 °F 82.7 °F 66.2 °F 61% 29.86 in 6.2 mi SW 10.4 mph - N/A   Scattered Clouds
3:50 PM 78.8 °F - 69.8 °F 74% 29.86 in 6.2 mi SSW 11.5 mph - N/A   Mostly Cloudy
4:20 PM 78.8 °F - 69.8 °F 74% 29.86 in 6.2 mi SSW 10.4 mph - N/A   Mostly Cloudy
4:50 PM 78.8 °F - 68.0 °F 69% 29.86 in 6.2 mi SSW 9.2 mph - N/A   Mostly Cloudy
5:00 PM 79 °F - 69 °F 63% 29.86 in 6 mi SSW 10.4 mph - -   Mostly Cloudy
5:20 PM 78.8 °F - 69.8 °F 74% 29.86 in 6.2 mi SSW 9.2 mph - N/A   Mostly Cloudy
5:50 PM 78.8 °F - 71.6 °F 78% 29.86 in 6.2 mi SSW 8.1 mph - N/A   Mostly Cloudy
6:20 PM 77.0 °F - 71.6 °F 83% 29.86 in 6.2 mi SSW 9.2 mph - N/A   Scattered Clouds
6:50 PM 77.0 °F - 71.6 °F 83% 29.86 in 6.2 mi SSW 8.1 mph - N/A   Scattered Clouds
7:20 PM 77.0 °F - 71.6 °F 83% 29.86 in 6.2 mi SSW 6.9 mph - N/A   Scattered Clouds
7:50 PM 77.0 °F - 69.8 °F 78% 29.86 in 6.2 mi SSW 6.9 mph - N/A   Scattered Clouds
8:00 PM 76 °F - 71 °F 80% 29.88 in 6 mi SSW 6.9 mph - -   Mostly Cloudy
8:20 PM 75.2 °F - 69.8 °F 83% 29.89 in 6.2 mi SSW 5.8 mph - N/A   Scattered Clouds
8:50 PM 75.2 °F - 69.8 °F 83% 29.89 in 6.2 mi SSW 5.8 mph - N/A   Scattered Clouds
9:20 PM 75.2 °F - 69.8 °F 83% 29.89 in 6.2 mi SSW 5.8 mph - N/A   Scattered Clouds
9:50 PM 75.2 °F - 69.8 °F 83% 29.89 in 6.2 mi SSW 5.8 mph - N/A   Scattered Clouds
10:20 PM 75.2 °F - 69.8 °F 83% 29.89 in 6.2 mi SSW 5.8 mph - N/A   Scattered Clouds
10:50 PM 75.2 °F - 69.8 °F 83% 29.89 in 6.2 mi SSW 5.8 mph - N/A   Scattered Clouds
11:00 PM 75 °F - 70 °F 81% 29.91 in 6 mi SSW 5.8 mph - -   Partly Cloudy
11:20 PM 75.2 °F - 69.8 °F 83% 29.89 in 6.2 mi SSW 4.6 mph - N/A   Scattered Clouds
11:50 PM 75.2 °F - 71.6 °F 89% 29.89 in 6.2 mi SSW 4.6 mph - N/A   Scattered Clouds